Olathe, KS

6:55 AM CDT on April 23, 2018 (GMT -0500)
Johnson County Executive

Weather History for KOJC - August, 2013

Change the Weather History Date:

Saturday, August 3, 2013

  Actual Average Record
Temperature  
Mean Temperature 78 °F 79 °F  
Max Temperature 84 °F 89 °F 104 °F (1987)
Min Temperature 72 °F 70 °F 55 °F (1950)
Degree Days  
Heating Degree Days 0 0  
Month to date heating degree days 0 0  
Since 1 June heating degree days 14 8  
Since 1 July heating degree days 0 0  
Cooling Degree Days 13 14  
Month to date cooling degree days 36 42  
Year to date cooling degree days 806 814  
Since 1 June cooling degree days 705 710  
Growing Degree Days 26 (Base 50)    
Moisture  
Dew Point 70 °F    
Average Humidity 79    
Maximum Humidity 93    
Minimum Humidity 65    
Precipitation  
Precipitation 0.09 in 0.07 in 1.27 in (1942)
Month to date precipitation 0.51 0.23  
Year to date precipitation 24.34 24.47  
Sea Level Pressure  
Sea Level Pressure 30.01 in    
Wind  
Wind Speed 7 mph (ENE)    
Max Wind Speed 14 mph    
Max Gust Speed 17 mph    
Visibility 10 miles    
Events Rain , Thunderstorm    
T = Trace of Precipitation, MM = Missing Value Source: NWS Daily Summary

Daily Weather History Graph

Daily Weather History Graph

Search for Another Location

Airport or City:

Astronomy

Aug. 03, 2013 Rise Set
Actual Time 6:22 AM CDT 8:27 PM CDT
Civil Twilight 5:52 AM CDT 8:56 PM CDT
Nautical Twilight 5:16 AM CDT 9:32 PM CDT
Astronomical Twilight 4:37 AM CDT 10:11 PM CDT
Moon 3:32 AM CDT (8/3) 6:10 PM CDT (8/3)
Length of Visible Light 15h 04m
Length of Day
14h 05m
Waning Crescent, 9% of the Moon is Illuminated
Aug 3
Waning Crescent
Aug 6
New
Aug 14
First Quarter
Aug 20
Full
Aug 28
Last Quarter

Hourly Weather History & Observations

Time (CDT) Temp. Heat Index Dew Point Humidity Pressure Visibility Wind Dir Wind Speed Gust Speed Precip Events Conditions
12:36 AM 75.2 °F - 71.6 °F 89% 29.97 in 10.0 mi NE 4.6 mph - N/A   Overcast
12:53 AM 75.9 °F - 72.0 °F 87% 29.92 in 10.0 mi SE 5.8 mph - N/A   Overcast
1:10 AM 75.2 °F - 71.6 °F 89% 29.94 in 10.0 mi East 6.9 mph - N/A   Overcast
1:53 AM 75.0 °F - 72.0 °F 90% 29.90 in 10.0 mi ENE 8.1 mph - N/A   Mostly Cloudy
2:20 AM 75.2 °F - 71.6 °F 89% 29.93 in 10.0 mi ENE 5.8 mph - N/A   Mostly Cloudy
2:42 AM 75.2 °F - 71.6 °F 89% 29.92 in 10.0 mi NE 5.8 mph - N/A Thunderstorm Overcast
2:53 AM 75.0 °F - 71.1 °F 87% 29.93 in 10.0 mi Variable 3.5 mph - N/A Thunderstorm Thunderstorm
3:02 AM 75.2 °F - 71.6 °F 89% 29.96 in 10.0 mi SW 4.6 mph - N/A Thunderstorm Overcast
3:23 AM 75.2 °F - 71.6 °F 89% 29.94 in 4.0 mi North 5.8 mph - 0.03 in Rain Rain
3:53 AM 73.9 °F - 71.1 °F 91% 29.91 in 9.0 mi NNE 9.2 mph - 0.07 in   Scattered Clouds
4:53 AM 73.0 °F - 69.1 °F 87% 29.94 in 10.0 mi ENE 8.1 mph - N/A   Mostly Cloudy
5:53 AM 72.0 °F - 69.1 °F 91% 29.96 in 7.0 mi ENE 5.8 mph - 0.02 in Rain Light Rain
6:18 AM 71.6 °F - 69.8 °F 94% 30.01 in 10.0 mi ENE 4.6 mph - 0.00 in   Overcast
6:50 AM 71.6 °F - 69.8 °F 94% 30.02 in 9.0 mi ENE 8.1 mph - 0.00 in   Overcast
6:53 AM 72.0 °F - 70.0 °F 93% 29.99 in 9.0 mi ENE 9.2 mph - 0.00 in   Overcast
7:04 AM 71.6 °F - 69.8 °F 94% 30.02 in 9.0 mi ENE 8.1 mph - N/A   Overcast
7:53 AM 72.0 °F - 69.1 °F 91% 30.00 in 9.0 mi ENE 6.9 mph - N/A   Mostly Cloudy
8:20 AM 73.4 °F - 69.8 °F 88% 30.03 in 9.0 mi ENE 13.8 mph - N/A   Overcast
8:53 AM 73.0 °F - 69.1 °F 87% 30.01 in 9.0 mi ENE 11.5 mph - N/A   Mostly Cloudy
9:53 AM 73.9 °F - 69.1 °F 85% 30.04 in 10.0 mi ENE 8.1 mph - N/A   Overcast
10:53 AM 77.0 °F - 71.1 °F 82% 30.05 in 10.0 mi ESE 5.8 mph - 0.00 in   Mostly Cloudy
11:53 AM 77.0 °F - 69.1 °F 76% 30.06 in 10.0 mi East 4.6 mph - N/A   Overcast
12:53 PM 78.1 °F - 69.1 °F 74% 30.05 in 10.0 mi Variable 5.8 mph - N/A   Overcast
1:53 PM 80.1 °F 83.6 °F 71.1 °F 74% 30.05 in 10.0 mi ENE 6.9 mph - N/A   Mostly Cloudy
2:53 PM 81.0 °F 84.9 °F 71.1 °F 72% 30.05 in 10.0 mi NE 9.2 mph - N/A   Overcast
3:53 PM 82.9 °F 87.0 °F 70.0 °F 65% 30.04 in 10.0 mi NE 9.2 mph - N/A   Overcast
4:00 PM 82.4 °F 87.2 °F 71.6 °F 70% 30.07 in 10.0 mi NE 9.2 mph - N/A   Mostly Cloudy
4:16 PM 82.4 °F 86.3 °F 69.8 °F 66% 30.07 in 10.0 mi ENE 8.1 mph - N/A   Mostly Cloudy
4:53 PM 82.0 °F 85.5 °F 69.1 °F 65% 30.04 in 10.0 mi ENE 9.2 mph - N/A   Mostly Cloudy
5:53 PM 82.0 °F 85.5 °F 69.1 °F 65% 30.04 in 10.0 mi ENE 8.1 mph - N/A   Overcast
6:53 PM 80.1 °F 82.7 °F 68.0 °F 67% 30.04 in 10.0 mi East 8.1 mph - N/A   Overcast
7:53 PM 79.0 °F - 68.0 °F 69% 30.04 in 10.0 mi East 6.9 mph - N/A   Clear
8:53 PM 77.0 °F - 68.0 °F 74% 30.04 in 10.0 mi East 4.6 mph - N/A   Clear
9:53 PM 75.9 °F - 69.1 °F 79% 30.07 in 10.0 mi SE 3.5 mph - N/A   Mostly Cloudy
10:53 PM 75.9 °F - 69.1 °F 79% 30.10 in 10.0 mi ENE 4.6 mph - N/A   Scattered Clouds
11:53 PM 75.0 °F - 69.1 °F 82% 30.11 in 10.0 mi ENE 3.5 mph - N/A   Mostly Cloudy